W7PJH Weather Reports


Display with metric or nautical units.
time (UTC)temp
F
wind
direction
speed
MPH
gust
MPH
rain 1hr
in
rain 24hr
in
rain mn
in
humidity
%
barometer
mb
20260506001548 77 315 6.0 14.0 0.00 0.06 0.04 27 1011.5
20260506000700 76 255 3.0 4.0 0.00 0.06 0.04 28 1011.3
20260505235533 75 242 7.0 15.0 0.00 0.06 0.04 28 1011.3
20260505234545 75 281 6.0 13.0 0.00 0.06 0.04 28 1011.3
20260505233740 76 252 5.0 7.0 0.00 0.06 0.04 28 1011.2
20260505232526 76 247 8.0 14.0 0.00 0.06 0.04 26 1011.4
20260505231533 76 228 8.0 15.0 0.00 0.06 0.04 26 1011.3
20260505230545 76 218 8.0 20.0 0.00 0.06 0.04 26 1011.3
20260505225813 76 204 9.0 18.0 0.00 0.06 0.04 27 1011.4
20260505225013 76 229 6.0 10.0 0.00 0.06 0.04 28 1011.5
20260505223845 77 249 9.0 12.0 0.00 0.06 0.04 27 1011.5
20260505222636 76 273 7.0 18.0 0.00 0.06 0.04 27 1011.6
20260505221532 76 264 9.0 25.0 0.00 0.06 0.04 27 1011.7
20260505220525 77 264 8.0 15.0 0.00 0.06 0.04 28 1011.7
20260505215609 76 274 8.0 14.0 0.00 0.06 0.04 29 1011.9
20260505214524 76 285 10.0 18.0 0.00 0.06 0.04 30 1011.9
20260505213552 76 293 9.0 19.0 0.00 0.06 0.04 30 1012.0
20260505212526 76 278 10.0 19.0 0.00 0.06 0.04 31 1012.1
20260505211532 76 283 9.0 19.0 0.00 0.06 0.04 34 1012.1
20260505210612 73 289 10.0 21.0 0.00 0.06 0.04 35 1012.2
20260505205900 74 257 7.0 15.0 0.00 0.06 0.04 36 1012.3
20260505204524 75 282 7.0 15.0 0.00 0.06 0.04 37 1012.3
20260505203533 72 279 7.0 17.0 0.00 0.06 0.04 39 1012.3
20260505202524 72 280 8.0 20.0 0.00 0.06 0.04 39 1012.5
20260505201533 71 260 6.0 14.0 0.00 0.06 0.04 45 1012.6
20260505200524 71 13 5.0 7.0 0.00 0.06 0.04 50 1012.7
20260505195532 71 0 2.0 4.0 0.00 0.06 0.04 49 1012.9
20260505194605 71 299 4.0 7.0 0.00 0.06 0.04 50 1013.0
20260505193532 72 356 3.0 10.0 0.00 0.06 0.04 50 1012.8
20260505192524 72 17 4.0 11.0 0.00 0.06 0.04 50 1013.0
20260505191532 72 327 4.0 8.0 0.00 0.06 0.04 51 1013.1
20260505190524 71 345 3.0 6.0 0.00 0.06 0.04 50 1013.4
20260505185532 70 289 2.0 5.0 0.00 0.06 0.04 53 1013.6
20260505184525 69 295 3.0 7.0 0.00 0.06 0.04 57 1013.8
20260505183549 69 284 4.0 7.0 0.00 0.06 0.04 56 1013.7
20260505182524 70 270 4.0 7.0 0.00 0.06 0.04 54 1013.9
20260505181533 67 41 2.0 4.0 0.00 0.06 0.04 61 1014.0
20260505180525 67 87 1.0 2.0 0.00 0.06 0.04 60 1014.1
20260505175552 68 43 1.0 3.0 0.00 0.06 0.04 60 1014.2
20260505174524 68 27 1.0 3.0 0.00 0.06 0.04 63 1014.3
20260505173533 68 18 1.0 5.0 0.00 0.06 0.04 61 1014.2
20260505172526 67 28 1.0 3.0 0.00 0.06 0.04 62 1014.3
20260505171532 68 2 2.0 4.0 0.00 0.06 0.04 63 1014.3
20260505170524 67 51 1.0 5.0 0.00 0.06 0.04 63 1014.2
20260505165552 67 54 0.0 2.0 0.00 0.06 0.04 64 1014.2
20260505164524 66 135 1.0 2.0 0.00 0.06 0.04 65 1014.2
20260505163532 65 324 1.0 4.0 0.00 0.06 0.04 72 1014.3
20260505162545 65 240 1.0 3.0 0.00 0.06 0.04 71 1014.4
20260505161532 64 259 1.0 4.0 0.00 0.06 0.04 73 1014.4
20260505160524 63 233 1.0 2.0 0.00 0.06 0.04 72 1014.3
20260505152605 62 141 1.0 3.0 0.00 0.06 0.04 84 1014.1
20260505151533 62 133 0.0 2.0 0.00 0.06 0.04 84 1014.1
20260505150524 61 139 1.0 2.0 0.00 0.06 0.04 85 1014.1
20260505140526 60 65 0.0 1.0 0.00 0.06 0.04 91 1013.7
20260505124526 59 0.0 0.0 0.00 0.05 0.02 93 1013.2
20260505123532 59 0.0 0.0 0.00 0.05 0.02 93 1013.1
20260505122524 59 0.0 1.0 0.00 0.05 0.02 93 1012.8
20260505121532 58 215 0.0 2.0 0.00 0.05 0.02 93 1012.9
20260505120525 58 0.0 0.0 0.00 0.05 0.02 93 1012.7
20260505115553 58 26 1.0 2.0 0.00 0.05 0.02 94 1012.6
20260505114525 58 0.0 0.0 0.00 0.05 0.02 94 1012.7
20260505113532 58 41 1.0 2.0 0.00 0.05 0.02 93 1012.6
20260505112524 58 285 0.0 1.0 0.00 0.05 0.02 93 1013.1
20260505111533 58 90 0.0 2.0 0.00 0.05 0.02 93 1012.8
20260505110524 58 30 0.0 2.0 0.00 0.05 0.02 92 1013.1
20260505101532 58 13 1.0 4.0 0.00 0.05 0.02 91 1013.9
20260505100605 58 19 1.0 4.0 0.01 0.05 0.02 93 1014.0
20260505095532 58 24 1.0 3.0 0.01 0.05 0.02 93 1014.2
20260505094545 58 87 1.0 3.0 0.02 0.05 0.02 93 1014.0
20260505093553 58 75 2.0 5.0 0.02 0.05 0.02 92 1014.3
20260505092524 58 105 1.0 4.0 0.02 0.05 0.02 93 1014.8
20260505091532 58 117 2.0 7.0 0.02 0.05 0.02 93 1014.7
20260505090524 58 100 3.0 7.0 0.01 0.04 0.01 93 1014.9
20260505085552 58 84 3.0 7.0 0.01 0.04 0.01 93 1015.3
20260505084524 58 84 3.0 5.0 0.00 0.02 0.00 92 1015.5
20260505083532 58 99 2.0 4.0 0.00 0.02 0.00 92 1016.0
20260505082525 58 98 2.0 4.0 0.00 0.02 0.00 92 1016.2
20260505081532 58 97 2.0 5.0 0.00 0.02 0.00 92 1016.3
20260505080524 59 100 2.0 4.0 0.00 0.02 0.00 92 1016.5
20260505075532 59 90 0.0 2.0 0.00 0.02 0.00 92 1016.8
20260505074544 59 101 1.0 3.0 0.00 0.02 0.00 92 1016.9
20260505073532 59 90 1.0 3.0 0.00 0.02 0.00 92 1017.0
20260505072524 59 91 1.0 2.0 0.00 0.02 0.00 92 1016.7
20260505071552 59 78 1.0 2.0 0.00 0.02 0.00 92 1016.7
20260505070545 59 119 1.0 2.0 0.00 0.02 0.00 92 1016.7
20260505065533 59 93 1.0 2.0 0.00 0.02 0.02 92 1016.5
20260505064545 59 75 0.0 2.0 0.00 0.02 0.02 92 1016.5
20260505063532 59 62 1.0 2.0 0.00 0.02 0.02 91 1016.4
20260505062526 59 48 0.0 2.0 0.00 0.02 0.02 90 1016.5
20260505061532 59 25 3.0 5.0 0.00 0.02 0.02 89 1016.6
20260505060524 59 57 1.0 2.0 0.00 0.02 0.02 88 1016.6
20260505055532 60 37 2.0 3.0 0.00 0.02 0.02 86 1016.4
20260505054700 60 47 1.0 2.0 0.00 0.02 0.02 87 1016.1
20260505053708 60 73 1.0 3.0 0.00 0.02 0.02 87 1016.2
20260505052524 60 103 1.0 2.0 0.00 0.02 0.02 86 1016.5
20260505051532 60 103 1.0 3.0 0.00 0.02 0.02 86 1016.5
20260505050524 60 93 2.0 3.0 0.00 0.02 0.02 86 1016.5
20260505041532 59 131 0.0 2.0 0.00 0.02 0.02 80 1016.3
20260505040606 59 43 1.0 3.0 0.00 0.02 0.02 83 1016.2
20260505035532 59 59 2.0 4.0 0.00 0.02 0.02 82 1016.0
20260505034524 58 60 2.0 7.0 0.00 0.02 0.02 83 1015.7
20260505033532 58 98 3.0 7.0 0.00 0.02 0.02 83 1015.6
20260505032804 58 154 2.0 3.0 0.00 0.02 0.02 85 1015.6
20260505031532 57 35 4.0 7.0 0.00 0.02 0.02 85 1015.6
20260505030544 58 40 3.0 5.0 0.00 0.02 0.02 86 1016.2
20260505025532 59 41 4.0 7.0 0.00 0.02 0.02 82 1016.5
20260505024524 59 34 3.0 4.0 0.00 0.02 0.02 84 1016.6
20260505023552 59 49 2.0 5.0 0.00 0.02 0.02 81 1016.6
20260505022524 60 64 1.0 2.0 0.00 0.02 0.02 81 1016.5
20260505021532 60 66 1.0 3.0 0.00 0.02 0.02 78 1016.5
20260505020524 61 54 0.0 2.0 0.00 0.02 0.02 80 1016.5
20260505015552 61 30 4.0 7.0 0.01 0.02 0.02 79 1016.0
20260505014524 62 24 4.0 7.0 0.02 0.02 0.02 76 1016.1
20260505013532 63 36 1.0 3.0 0.02 0.02 0.02 75 1016.1
20260505012544 64 22 2.0 4.0 0.02 0.02 0.02 73 1015.5
20260505011610 64 20 3.0 5.0 0.02 0.02 0.02 69 1015.2
20260505010524 65 19 6.0 9.0 0.02 0.02 0.02 66 1014.9
20260505005636 66 10 4.0 7.0 0.01 0.01 0.01 62 1015.1
20260505004526 67 346 0.0 2.0 0.00 0.00 0.00 59 1015.3
20260505003612 67 8 1.0 4.0 0.00 0.00 0.00 55 1015.5
20260505002524 68 11 5.0 10.0 0.00 0.00 0.00 48 1015.2